Weather History for KVYS - September, 2013

Change the Weather History Date:

Monday, September 30, 2013

  Actual Average Record
Temperature  
Mean Temperature 60 °F -  
Max Temperature 76 °F 74 °F 88 °F (1971)
Min Temperature 44 °F 46 °F 30 °F (1993)
Degree Days  
Heating Degree Days 5    
Growing Degree Days 10 (Base 50)    
Moisture  
Dew Point 48 °F    
Average Humidity 68    
Maximum Humidity 95    
Minimum Humidity 34    
Precipitation  
Precipitation 0.00 in - - ()
Sea Level Pressure  
Sea Level Pressure 29.95 in    
Wind  
Wind Speed 4 mph (South)    
Max Wind Speed 13 mph    
Max Gust Speed 17 mph    
Visibility 9 miles    
Events      
Averages and records for this station are not official NWS values.
T = Trace of Precipitation, MM = Missing Value Source: NWS Daily Summary

Daily Weather History Graph

Daily Weather History Graph

Search for Another Location

Airport or City:

Trip Planner

Search our weather history database for the weather conditions in past years. The results will help you decide how hot, cold, wet, or windy it might be!

Date:

Astronomy

Sep. 30, 2013 Rise Set
Actual Time 6:52 AM CDT 6:39 PM CDT
Civil Twilight 6:25 AM CDT 7:07 PM CDT
Nautical Twilight 5:52 AM CDT 7:39 PM CDT
Astronomical Twilight 5:20 AM CDT 8:11 PM CDT
Moon 2:27 AM CDT (9/30) 4:12 PM CDT (9/30)
Length of Visible Light 12h 42m
Length of Day
11h 47m
Waning Crescent, 19% of the Moon is Illuminated
Sep 30
Waning Crescent
Oct 4
New
Oct 11
First Quarter
Oct 18
Full
Oct 26
Last Quarter

Hourly Weather History & Observations

Time (CDT) Temp. Windchill Dew Point Humidity Pressure Visibility Wind Dir Wind Speed Gust Speed Precip Events Conditions
12:15 AM 51.8 °F - 46.2 °F 81% 30.01 in 10.0 mi Calm Calm - N/A   Clear
12:35 AM 51.3 °F - 45.7 °F 81% 30.01 in 10.0 mi Calm Calm - N/A   Clear
12:55 AM 48.4 °F - 44.2 °F 86% 30.01 in 10.0 mi Calm Calm - N/A   Clear
1:15 AM 48.0 °F - 44.6 °F 88% 30.01 in 10.0 mi Calm Calm - N/A   Clear
1:35 AM 47.8 °F - 43.7 °F 86% 30.01 in 10.0 mi Calm Calm - N/A   Clear
1:55 AM 46.9 °F - 43.9 °F 89% 30.00 in 10.0 mi Calm Calm - N/A   Clear
2:15 AM 47.7 °F - 44.6 °F 89% 30.00 in 10.0 mi Calm Calm - N/A   Clear
2:35 AM 47.1 °F - 43.9 °F 88% 29.99 in 10.0 mi Calm Calm - N/A   Clear
2:55 AM 47.3 °F - 44.6 °F 90% 29.98 in 10.0 mi Calm Calm - N/A   Clear
3:15 AM 46.4 °F - 43.9 °F 91% 29.98 in 10.0 mi Calm Calm - N/A   Clear
3:35 AM 47.5 °F - 45.1 °F 92% 29.99 in 10.0 mi Calm Calm - N/A   Clear
3:55 AM 46.0 °F - 43.2 °F 90% 29.99 in 10.0 mi Calm Calm - N/A   Clear
4:15 AM 45.9 °F - 43.3 °F 91% 30.00 in 10.0 mi Calm Calm - N/A   Clear
4:35 AM 45.1 °F - 43.0 °F 92% 30.00 in 10.0 mi Calm Calm - N/A   Clear
4:55 AM 45.1 °F - 42.8 °F 91% 30.00 in 10.0 mi Calm Calm - N/A   Clear
5:15 AM 44.4 °F - 42.4 °F 93% 30.00 in 7.0 mi Calm Calm - N/A   Clear
5:35 AM 45.1 °F - 43.5 °F 94% 30.01 in 7.0 mi Calm Calm - N/A   Clear
5:55 AM 44.6 °F - 42.8 °F 93% 30.01 in 7.0 mi Calm Calm - N/A   Clear
6:15 AM 45.0 °F - 43.3 °F 94% 30.00 in 10.0 mi Calm Calm - N/A   Clear
6:35 AM 44.6 °F - 42.8 °F 93% 30.00 in 5.0 mi Calm Calm - N/A   Clear
6:55 AM 44.8 °F 43.3 °F 43.2 °F 94% 30.01 in 4.0 mi ENE 3.5 mph - N/A   Clear
7:15 AM 45.3 °F 43.0 °F 44.1 °F 95% 30.01 in 2.5 mi East 4.6 mph - N/A   Clear
7:35 AM 46.6 °F - 45.1 °F 95% 30.01 in 4.0 mi SE 3.5 mph - N/A   Clear
7:55 AM 48.7 °F - 46.9 °F 93% 30.01 in 5.0 mi SE 4.6 mph - N/A   Clear
8:15 AM 50.0 °F - 48.2 °F 94% 30.01 in 7.0 mi SE 3.5 mph - N/A   Clear
8:35 AM 52.3 °F - 49.3 °F 89% 30.00 in 10.0 mi SE 4.6 mph - N/A   Clear
8:55 AM 54.7 °F - 50.0 °F 84% 30.01 in 10.0 mi SE 4.6 mph - N/A   Clear
9:15 AM 57.2 °F - 51.1 °F 80% 30.01 in 10.0 mi SE 4.6 mph - N/A   Clear
9:35 AM 59.0 °F - 51.3 °F 75% 30.01 in 10.0 mi SSE 5.8 mph - N/A   Clear
9:55 AM 60.3 °F - 51.6 °F 73% 30.00 in 10.0 mi SSE 8.1 mph - N/A   Clear
10:15 AM 61.9 °F - 50.9 °F 67% 30.00 in 10.0 mi South 6.9 mph - N/A   Clear
10:35 AM 63.7 °F - 50.5 °F 62% 29.99 in 10.0 mi SSE 6.9 mph - N/A   Clear
10:55 AM 65.7 °F - 47.8 °F 53% 29.99 in 10.0 mi ESE 8.1 mph - N/A   Clear
11:15 AM 67.5 °F - 46.9 °F 48% 29.98 in 10.0 mi ESE 8.1 mph - N/A   Clear
11:35 AM 68.2 °F - 46.8 °F 46% 29.97 in 10.0 mi SE 8.1 mph - N/A   Clear
11:55 AM 69.3 °F - 46.6 °F 44% 29.97 in 10.0 mi SSE 9.2 mph - N/A   Clear
12:15 PM 70.5 °F - 45.9 °F 41% 29.96 in 10.0 mi SSE 11.5 mph - N/A   Clear
12:35 PM 71.6 °F - 44.8 °F 38% 29.96 in 10.0 mi South 6.9 mph - N/A   Clear
12:55 PM 71.6 °F - 44.4 °F 38% 29.95 in 10.0 mi South 3.5 mph - N/A   Clear
1:15 PM 72.5 °F - 45.9 °F 39% 29.93 in 10.0 mi South 11.5 mph - N/A   Clear
1:35 PM 73.0 °F - 45.1 °F 37% 29.93 in 10.0 mi South 10.4 mph - N/A   Clear
1:55 PM 73.8 °F - 46.2 °F 37% 29.92 in 10.0 mi SSW 11.5 mph - N/A   Clear
2:15 PM 75.0 °F - 47.3 °F 37% 29.91 in 10.0 mi South 12.7 mph - N/A   Clear
2:35 PM 75.2 °F - 46.6 °F 36% 29.90 in 10.0 mi South 11.5 mph - N/A   Clear
2:55 PM 75.6 °F - 47.7 °F 37% 29.89 in 10.0 mi SSW 12.7 mph 17.3 mph N/A   Clear
3:15 PM 76.1 °F - 47.5 °F 36% 29.88 in 10.0 mi South 12.7 mph 16.1 mph N/A   Clear
3:35 PM 76.5 °F - 46.2 °F 34% 29.88 in 10.0 mi South 10.4 mph 16.1 mph N/A   Clear
3:55 PM 76.3 °F - 46.2 °F 34% 29.88 in 10.0 mi SSW 10.4 mph - N/A   Clear
4:15 PM 75.9 °F - 45.5 °F 34% 29.88 in 10.0 mi SSW 9.2 mph - N/A   Clear
4:35 PM 75.6 °F - 46.2 °F 35% 29.87 in 10.0 mi SSW 8.1 mph - N/A   Clear
4:55 PM 75.7 °F - 47.5 °F 37% 29.88 in 10.0 mi WSW 9.2 mph - N/A   Clear
5:15 PM 75.2 °F - 50.4 °F 42% 29.88 in 10.0 mi WSW 9.2 mph - N/A   Clear
5:35 PM 73.8 °F - 50.5 °F 44% 29.88 in 10.0 mi WSW 6.9 mph - N/A   Clear
5:55 PM 72.7 °F - 50.2 °F 45% 29.88 in 10.0 mi WSW 4.6 mph - N/A   Clear
6:15 PM 71.6 °F - 49.5 °F 45% 29.88 in 10.0 mi SSW 4.6 mph - N/A   Clear
6:35 PM 69.8 °F - 49.6 °F 49% 29.88 in 10.0 mi SSW 4.6 mph - N/A   Clear
6:55 PM 68.9 °F - 49.8 °F 51% 29.88 in 10.0 mi SSE 4.6 mph - N/A   Clear
7:15 PM 68.7 °F - 50.4 °F 52% 29.88 in 10.0 mi SSE 5.8 mph - N/A   Clear
7:35 PM 67.3 °F - 50.9 °F 56% 29.88 in 10.0 mi SSE 6.9 mph - N/A   Clear
7:55 PM 65.7 °F - 50.9 °F 59% 29.88 in 10.0 mi SSE 9.2 mph - N/A   Clear
8:15 PM 64.0 °F - 51.1 °F 63% 29.88 in 10.0 mi South 9.2 mph - N/A   Clear
8:35 PM 62.6 °F - 51.8 °F 68% 29.89 in 10.0 mi South 9.2 mph - N/A   Clear
8:55 PM 63.9 °F - 52.3 °F 66% 29.89 in 10.0 mi South 11.5 mph - N/A   Clear
9:15 PM 62.6 °F - 52.5 °F 70% 29.89 in 10.0 mi South 8.1 mph - N/A   Clear
9:35 PM 61.7 °F - 53.1 °F 73% 29.89 in 10.0 mi South 6.9 mph - N/A   Clear
9:55 PM 60.3 °F - 53.1 °F 77% 29.89 in 10.0 mi South 6.9 mph - N/A   Clear
10:15 PM 60.1 °F - 53.2 °F 78% 29.89 in 10.0 mi South 6.9 mph - N/A   Clear
10:35 PM 60.3 °F - 54.3 °F 81% 29.89 in 10.0 mi South 6.9 mph - N/A   Clear
10:55 PM 61.2 °F - 55.0 °F 80% 29.88 in 10.0 mi South 11.5 mph - N/A   Clear
11:15 PM 61.7 °F - 55.6 °F 80% 29.89 in 10.0 mi South 10.4 mph - N/A   Clear
11:35 PM 61.7 °F - 55.8 °F 81% 29.89 in 10.0 mi South 11.5 mph - N/A   Clear
11:55 PM 60.6 °F - 55.6 °F 83% 29.90 in 10.0 mi South 8.1 mph - N/A   Clear